Location: Gisborne
(38.6530°S, 178.0040°E)
Time: 06:28:52
(UTC+12:00)

Daily predictions for brighter satellites

Satellite Brightness Start Highest point End
(mag) Time Altitude Azimuth Time Altitude Azimuth Time Altitude Azimuth
Cosmos 2218 Rocket 4.2 17:47:16 10° S 17:53:30 51° E 17:59:34 10° NNE
BREEZE M DEB (TANK) 3.5 17:55:41 10° SSW 17:57:25 15° SSE 17:58:53 10° SE
SMAP 3.5 17:58:24 10° SSE 18:02:54 42° E 18:07:20 10° N
CZ-4B DEB 4.4 17:58:29 10° SSE 18:04:06 85° WSW 18:09:36 10° NNW
BREEZE-M R/B 4.2 17:59:47 10° NNW 18:04:31 27° NE 18:07:24 10° E
MOS 1-B 4.5 17:59:43 10° SSE 18:05:37 87° WSW 18:11:28 10° NNW
Atlas Centaur 2 3.9 18:05:26 10° NW 18:07:42 14° NNW 18:09:48 10° N
SL-24 R/B 4.5 18:05:05 10° NNE 18:09:46 65° ESE 18:15:14 10° S
Okean O Rocket 1.6 18:05:28 10° SSE 18:09:51 62° E 18:14:10 10° N
Cosmos 1959 Rocket 4.5 18:03:39 10° S 18:09:53 67° E 18:16:07 10° NNE
Radarsat Rocket 4.5 18:03:14 10° SSE 18:10:02 65° ENE 18:17:40 10° N
Cosmos 2082 Rocket 3.0 18:04:42 10° SSW 18:10:21 58° WNW 18:15:57 10° N
CZ-4B R/B 3.2 18:06:39 10° SSE 18:12:07 67° ENE 18:17:25 10° N
Cosmos 1452 Rocket 3.7 18:09:16 10° N 18:14:24 55° ENE 18:19:37 10° SSE
CENTAUR R/B 3.5 18:10:27 10° SW 18:15:39 42° WNW 18:20:29 10° N
Helios 1A Rocket 4.3 18:13:02 10° SE 18:16:05 20° E 18:19:05 10° NE
MOS 1 Rocket 3.6 18:13:54 10° NE 18:18:19 41° ESE 18:22:33 10° S
Cosmos 1862 3.8 18:14:54 10° S 18:18:43 37° ESE 18:22:28 10° NNE
Cosmos 1633 3.8 18:21:37 10° SSW 18:25:08 45° W 18:28:35 10° NNW
Nadezhda 3 Rocket 4.3 18:21:16 10° NNE 18:27:02 42° E 18:32:55 10° SSE
GPS 2-04 Rocket1 3.9 18:25:15 10° NW 18:28:41 29° NNE 18:31:00 16° ENE
Envisat 3.1 18:24:58 10° S 18:30:10 84° WSW 18:35:16 10° NNW
CORIOLIS 4.2 18:25:00 10° SSE 18:30:26 65° ENE 18:35:49 10° N
Cosmos 1441 Rocket 3.3 18:26:55 10° S 18:30:55 60° E 18:34:47 10° NNE
BREEZE-M DEB (TANK) 3.6 18:32:32 10° W 18:34:34 28° NW 18:38:00 10° NNE
Cosmos 1850 Rocket 4.5 18:30:50 10° S 18:35:54 39° ESE 18:40:54 10° NE
AQUARIUS 4.2 18:32:06 10° SSE 18:36:42 88° ENE 18:41:13 10° NNW
Lacrosse 5 rocket 3.8 18:36:24 10° SW 18:37:18 11° SSW 18:38:13 10° SSW
BREEZE M DEB (TANK) 3.0 18:36:06 10° SW 18:37:29 19° S 18:38:00 18° SSE
Cosmos 1656 Rocket 4.3 18:33:56 10° NNE 18:38:59 34° ENE 18:43:36 12° SE
Cosmos 676 Rocket 4.3 18:33:45 10° SSW 18:39:01 74° WNW 18:44:17 10° N
Cosmos 1821 Rocket 4.2 18:34:16 10° S 18:40:12 46° ESE 18:46:01 10° NNE
Cosmos 1606 3.4 18:37:51 10° NNE 18:41:11 30° E 18:43:19 18° SE
Cosmos 332 Rocket 4.3 18:36:24 10° NNW 18:41:18 66° WSW 18:46:15 10° SSE
Lacrosse 4 Rocket 2.4 18:39:54 10° S 18:43:56 31° SE 18:45:24 25° E
Cosmos 1151 Rocket 3.9 18:42:01 10° NE 18:45:41 27° E 18:46:29 25° ESE
CZ-2C R/B 2.8 18:41:53 10° NNE 18:47:12 53° ESE 18:52:41 10° S
Sich 1 3.1 18:44:08 10° S 18:48:29 52° E 18:52:46 10° NNE
Aureole 1 Rocket 4.2 18:48:42 10° SW 18:52:17 42° WNW 18:56:47 10° N
Iridium 2 4.2 18:49:45 10° NNE 18:53:14 36° E 18:53:32 35° ESE
Milstar 3 Cent rocket 3.6 18:50:16 10° WNW 18:55:36 28° N 18:58:41 15° NE
Cosmos 2369 Rocket 2.3 18:51:42 10° NNW 18:57:27 84° WSW 19:03:15 10° SSE
IRS-1C Rocket 4.0 18:55:00 10° SSE 19:00:20 66° ENE 19:05:35 10° N
Cosmos 1943 Rocket 3.1 18:58:50 10° NW 19:04:09 48° WSW 19:09:32 10° SSE
CZ-4 R/B 3.4 19:07:54 15° NNE 19:07:54 15° NNE 19:08:40 10° NNE
Cosmos 2239 Rocket 4.4 18:59:35 10° S 19:05:50 63° E 19:11:57 10° NNE
IRIDIUM 103 4.5 19:04:13 10° S 19:09:21 49° E 19:14:26 10° NNE
IRIS 4.4 19:04:52 10° WNW 19:09:41 71° NNE 19:10:02 64° ENE
Cosmos 1110 Rocket 3.9 19:04:42 10° N 19:09:54 71° ENE 19:14:23 14° SSE
FengYun 1-2 T 4.3 19:06:17 10° S 19:11:58 81° WSW 19:17:31 10° NNW
SL-27 R/B 3.3 19:10:55 10° S 19:13:19 37° S 19:13:19 37° S
Cosmos 1741 Rocket 3.9 19:09:25 10° SSW 19:14:44 84° ESE 19:19:58 10° NNE
Cosmos 2263 4.2 19:09:10 10° NNW 19:14:53 85° WSW 19:20:37 10° SSE
CZ-4 R/B 4.3 19:18:42 28° SSE 19:20:54 80° ENE 19:25:05 10° N
CZ-4C R/B 3.4 19:18:59 10° NW 19:27:10 62° SW 19:33:45 13° SSE
Cosmos 1666 Rocket 3.5 19:22:58 10° S 19:27:26 86° WNW 19:30:12 22° N
IRIDIUM 106 4.2 19:22:23 10° S 19:27:42 74° E 19:32:56 10° N
H-2A R/B 4.0 19:25:07 10° WNW 19:31:00 62° N 19:41:40 32° ENE
DELTA 2 R/B (1) 3.5 19:26:10 10° W 19:31:47 81° S 19:32:42 63° ESE
ATLAS 3B R/B 4.0 19:29:07 10° SW 19:35:38 39° WNW 19:41:52 10° N
Cosmos 1939 Rocket 3.3 19:35:32 37° SSW 19:36:51 58° WSW 19:40:41 10° NNW
Okean-O 2.8 19:39:16 38° S 19:40:54 70° WSW 19:45:20 10° NNW
Cosmos 1933 4.4 19:44:25 10° NNW 19:47:31 43° NW 19:47:31 43° NW
CZ-2C R/B 4.2 19:53:39 56° W 19:53:39 56° W 19:58:04 10° SSW
Cosmos 1633 Rocket 3.8 19:50:13 10° SSW 19:54:34 51° W 19:54:34 51° W
Cosmos 1833 4.2 19:52:55 10° SSW 19:58:10 75° SSW 19:58:10 75° SSW
Cosmos 1934 Rocket 4.2 19:53:40 10° SSW 19:59:55 70° W 20:06:12 10° N
Meteor 1-25 Rocket 4.4 19:59:30 10° SSW 20:04:45 69° WSW 20:04:45 69° WSW
Lacrosse 4 Rocket 3.7 20:18:46 10° SW 20:21:48 24° W 20:21:48 24° W
BREEZE-M DEB (TANK) 4.5 20:25:18 10° NW 20:39:25 57° NW 20:39:25 57° NW
